ProjectID,Date,Electric Generation,Electric Utility Import,Facility Electric Load
,YYYY-MM-DD,kW,kW,kW
1159,2019-11-11,82.25569565217391,82.97695652173913,165.23265217391304
1159,2019-11-12,81.94283333333333,94.72283333333333,176.66566666666665
1159,2019-11-13,81.99620833333334,98.6785,180.67470833333334
1159,2019-11-14,75.17395833333333,105.14991666666667,180.323875
1159,2019-11-15,82.38133333333333,92.74616666666667,175.1275
1159,2019-11-16,81.67533333333334,103.37650000000001,185.05183333333335
1159,2019-11-17,82.40729166666667,112.8295,195.23679166666665
1159,2019-11-18,81.84904166666666,102.81908333333332,184.66812499999997
1159,2019-11-19,82.66745833333333,97.05083333333333,179.71829166666666
1159,2019-11-20,45.63545833333333,48.39058333333333,94.02604166666666
1159,2019-11-21,62.28,70.12116666666667,132.40116666666665
1159,2019-11-22,82.105,89.44158333333333,171.54658333333333
1159,2019-11-23,82.25695833333333,98.42725,180.68420833333334
1159,2019-11-24,81.698125,111.07179166666667,192.7699166666667
1159,2019-11-25,82.55458333333333,93.54183333333333,176.09641666666664
1159,2019-11-26,81.407375,82.28004166666666,163.68741666666665
1159,2019-11-27,82.66941666666666,90.98195833333334,173.651375
1159,2019-11-28,82.79079166666666,107.06654166666668,189.85733333333334
1159,2019-11-29,82.6935,108.37650000000001,191.07
1159,2019-11-30,82.577625,101.10425,183.681875
1159,2019-12-01,81.92037499999999,127.40508333333334,209.32545833333333
1159,2019-12-02,82.42970833333334,119.33216666666668,201.76187500000003
1159,2019-12-03,82.66933333333334,107.69558333333333,190.36491666666666
1159,2019-12-04,82.66020833333333,98.54708333333333,181.20729166666666
1159,2019-12-05,82.744625,97.67991666666667,180.42454166666667
1159,2019-12-06,82.59879166666667,102.52108333333332,185.11987499999998
1159,2019-12-07,82.34025,101.63829166666666,183.97854166666667
1159,2019-12-08,82.71266666666666,108.98716666666667,191.69983333333334
1159,2019-12-09,82.628,102.91433333333333,185.54233333333332
1159,2019-12-10,82.212,93.60708333333334,175.81908333333334
1159,2019-12-11,82.37641666666667,97.364875,179.74129166666665
1159,2019-12-12,82.370875,100.854375,183.22525000000002
1159,2019-12-13,82.52775,101.75283333333334,184.28058333333334
1159,2019-12-14,82.08245833333334,96.95091666666667,179.033375
1159,2019-12-15,82.34129166666666,105.75029166666667,188.09158333333335
1159,2019-12-16,82.57720833333333,98.98720833333334,181.56441666666666
1159,2019-12-17,82.09779166666667,105.97683333333333,188.074625
1159,2019-12-18,82.42954166666667,102.93520833333334,185.36475000000002
1159,2019-12-19,82.40770833333333,120.56795833333332,202.97566666666665
1159,2019-12-20,82.71908333333333,114.8335,197.55258333333333
1159,2019-12-21,82.50862500000001,116.03154166666667,198.54016666666666
1159,2019-12-22,82.67266666666667,121.42216666666667,204.09483333333333
1159,2019-12-23,82.56679166666667,101.71887500000001,184.28566666666669
1159,2019-12-24,82.461375,92.65125,175.112625
1159,2019-12-25,82.74075,103.73975,186.4805
1159,2019-12-26,82.48508333333334,108.68783333333333,191.17291666666665
1159,2019-12-27,82.00145833333333,98.38041666666668,180.381875
1159,2019-12-28,82.628125,87.76079166666666,170.38891666666666
1159,2019-12-29,82.52608333333333,103.74758333333334,186.27366666666666
1159,2019-12-30,82.2345,124.73204166666666,206.96654166666667
1159,2019-12-31,53.37233333333333,143.90654166666667,197.278875
1159,2020-01-01,-0.0615,198.44816666666668,198.38666666666668
1159,2020-01-02,35.80329166666667,143.84658333333334,179.649875
1159,2020-01-03,68.109375,106.65129166666667,174.76066666666668
1159,2020-01-04,68.00754166666667,113.422125,181.42966666666666
1159,2020-01-05,68.03158333333333,119.50025,187.53183333333334
1159,2020-01-06,78.92670833333334,99.32570833333334,178.25241666666668
1159,2020-01-07,82.60570833333334,96.18520833333334,178.79091666666667
1159,2020-01-08,82.08520833333334,99.24245833333333,181.3276666666667
1159,2020-01-09,82.25862500000001,97.21904166666667,179.47766666666666
1159,2020-01-10,81.96041666666666,89.31004166666666,171.27045833333332
1159,2020-01-11,81.61375,84.732,166.34575
1159,2020-01-12,80.73291666666667,86.17991666666667,166.91283333333334
1159,2020-01-13,82.28920833333333,98.43254166666667,180.72175
1159,2020-01-14,82.20916666666666,102.48991666666666,184.6990833333333
1159,2020-01-15,82.24725,88.51066666666667,170.75791666666666
1159,2020-01-16,81.782125,90.06008333333334,171.84220833333333
1159,2020-01-17,82.336375,99.27891666666666,181.61529166666668
1159,2020-01-18,82.10854166666667,120.64866666666667,202.75720833333332
1159,2020-01-19,82.08875,106.59395833333333,188.68270833333332
1159,2020-01-20,82.14695833333333,113.627875,195.77483333333333
1159,2020-01-21,82.12675,108.11220833333334,190.23895833333336
1159,2020-01-22,82.21045833333334,100.16691666666667,182.377375
1159,2020-01-23,82.35008333333333,89.65641666666666,172.0065
1159,2020-01-24,82.67329166666667,80.815375,163.4886666666667
1159,2020-01-25,81.87650000000001,108.25283333333334,190.12933333333336
1159,2020-01-26,81.58870833333333,95.34654166666667,176.93525
1159,2020-01-27,81.980875,85.9065,167.887375
1159,2020-01-28,82.41487500000001,83.56275000000001,165.97762500000002
1159,2020-01-29,82.02970833333333,86.32579166666666,168.3555
1159,2020-01-30,82.01670833333334,93.40133333333334,175.41804166666668
1159,2020-01-31,82.40470833333333,93.38320833333334,175.78791666666666
1159,2020-02-01,82.7325,101.56529166666667,184.29779166666668
1159,2020-02-02,81.979875,102.57045833333332,184.55033333333333
1159,2020-02-03,82.60091666666666,83.28408333333333,165.885
1159,2020-02-04,82.07658333333333,80.67470833333333,162.75129166666665
1159,2020-02-05,82.41266666666667,85.01329166666666,167.4259583333333
1159,2020-02-06,82.50670833333334,92.68508333333334,175.1917916666667
1159,2020-02-07,82.58895833333334,93.89870833333333,176.48766666666666
1159,2020-02-08,82.25629166666667,97.30229166666668,179.55858333333333
1159,2020-02-09,82.44508333333333,101.17995833333333,183.62504166666668
1159,2020-02-10,82.14170833333334,91.37525,173.51695833333332
1159,2020-02-11,82.66345833333334,82.12266666666666,164.786125
1159,2020-02-12,82.24795833333333,84.831,167.07895833333333
1159,2020-02-13,82.08704166666666,81.81791666666668,163.90495833333335
1159,2020-02-14,82.83870833333333,87.659125,170.49783333333335
1159,2020-02-15,82.52550000000001,101.79704166666666,184.32254166666667
1159,2020-02-16,82.51158333333333,98.328375,180.83995833333333
1159,2020-02-17,82.37279166666666,89.12266666666666,171.49545833333332
1159,2020-02-18,82.13437499999999,88.703375,170.83774999999997
1159,2020-02-19,82.94504166666667,83.427375,166.37241666666665
1159,2020-02-20,82.60354166666666,92.21116666666667,174.81470833333333
1159,2020-02-21,82.55183333333333,99.72683333333333,182.27866666666665
1159,2020-02-22,82.18595833333333,99.291875,181.47783333333334
1159,2020-02-23,82.374375,90.82058333333333,173.19495833333332
1159,2020-02-24,82.44458333333334,77.75020833333333,160.19479166666667
1159,2020-02-25,82.88370833333333,79.16170833333334,162.04541666666665
1159,2020-02-26,82.47604166666666,83.50029166666667,165.97633333333334
1159,2020-02-27,82.05920833333333,85.66158333333334,167.72079166666668
1159,2020-02-28,82.76241666666667,90.703375,173.46579166666666
1159,2020-02-29,82.81720833333334,99.81275,182.62995833333332
1159,2020-03-01,82.97054166666666,95.79979166666668,178.77033333333333
1159,2020-03-02,82.77820833333332,76.534125,159.31233333333333
1159,2020-03-03,82.91733333333333,71.01841666666667,153.93574999999998
1159,2020-03-04,82.34883333333333,76.04970833333333,158.39854166666666
1159,2020-03-05,82.739875,73.37525000000001,156.115125
1159,2020-03-06,82.30154166666667,85.18245833333333,167.48399999999998
1159,2020-03-07,82.49354166666667,94.065375,176.55891666666668
1159,2020-03-08,79.47354166666666,81.58095833333333,161.0545
1159,2020-03-09,71.82929166666666,72.10962500000001,143.93891666666667
1159,2020-03-10,79.09166666666667,73.815375,152.90704166666666
1159,2020-03-11,82.42591666666667,72.55233333333334,154.97825
1159,2020-03-12,82.07041666666667,81.45075,163.52116666666666
1159,2020-03-13,82.779,79.75804166666667,162.53704166666665
1159,2020-03-14,82.56125,88.19033333333334,170.75158333333334
1159,2020-03-15,82.23391666666667,91.87270833333334,174.106625
1159,2020-03-16,82.89716666666666,99.24245833333333,182.139625
1159,2020-03-17,82.20983333333334,96.16166666666668,178.37150000000003
1159,2020-03-18,82.23258333333334,86.27895833333334,168.5115416666667
1159,2020-03-19,82.59358333333334,88.92475,171.51833333333335
1159,2020-03-20,82.17591666666667,83.23979166666668,165.41570833333333
1159,2020-03-21,81.574,89.93766666666666,171.51166666666666
1159,2020-03-22,81.94875,97.33095833333334,179.27970833333336
1159,2020-03-23,82.51412499999999,113.63566666666667,196.14979166666666
1159,2020-03-24,82.03466666666667,99.69029166666667,181.72495833333335
1159,2020-03-25,82.167125,102.92741666666666,185.09454166666666
1159,2020-03-26,81.83895833333334,94.25020833333333,176.08916666666667
1159,2020-03-27,81.9485,81.98454166666666,163.93304166666667
1159,2020-03-28,81.451875,99.659125,181.111
1159,2020-03-29,82.251875,107.60433333333333,189.8562083333333
1159,2020-03-30,82.49483333333333,93.25020833333333,175.74504166666668
1159,2020-03-31,82.05741666666667,95.02633333333334,177.08375
1159,2020-04-01,82.024625,89.03416666666668,171.05879166666668
1159,2020-04-02,81.29916666666666,91.3805,172.67966666666666
1159,2020-04-03,82.23983333333334,92.2085,174.44833333333332
1159,2020-04-04,82.47666666666667,87.85695833333334,170.333625
1159,2020-04-05,81.971,84.27625,166.24725
1159,2020-04-06,81.82845833333333,81.12791666666666,162.95637499999998
1159,2020-04-07,82.14104166666667,78.59670833333332,160.73775
1159,2020-04-08,81.77816666666666,78.65920833333332,160.43737499999997
1159,2020-04-09,78.38641666666666,88.65641666666666,167.0428333333333
1159,2020-04-10,82.80083333333333,93.85441666666667,176.65525
1159,2020-04-11,82.61429166666666,97.38045833333332,179.99474999999998
1159,2020-04-12,82.3875,85.51329166666666,167.90079166666666
1159,2020-04-13,82.27591666666667,86.79191666666667,169.06783333333334
1159,2020-04-14,82.2615,81.87783333333333,164.13933333333333
1159,2020-04-15,81.19520833333333,93.140875,174.3360833333333
1159,2020-04-16,81.8755,98.81016666666666,180.68566666666666
1159,2020-04-17,81.65050000000001,97.16175,178.81225
1159,2020-04-18,81.84195833333334,95.3805,177.22245833333335
1159,2020-04-19,81.93758333333334,87.48466666666667,169.42225000000002
1159,2020-04-20,81.85829166666666,85.14866666666667,167.00695833333333
1159,2020-04-21,3.4609583333333336,3.9895833333333335,7.450541666666667
1159,2020-04-22,78.81854166666666,87.42208333333333,166.240625
1159,2020-04-23,81.98583333333333,89.073125,171.05895833333335
1159,2020-04-24,82.443,97.078375,179.52137499999998
1159,2020-04-25,82.12316666666666,92.502875,174.62604166666665
1159,2020-04-26,81.92395833333333,108.760625,190.68458333333334
1159,2020-04-27,51.8325,70.20070833333334,122.03320833333333
1159,2020-04-28,82.47533333333332,83.75808333333333,166.23341666666664
1159,2020-04-29,82.10466666666666,92.70079166666666,174.80545833333332
1159,2020-04-30,82.33604166666667,95.02625,177.3622916666667
1159,2020-05-01,79.47379166666667,89.27375,168.74754166666668
1159,2020-05-02,79.01145833333334,81.37525000000001,160.38670833333333
1159,2020-05-03,76.94979166666667,86.09141666666666,163.04120833333332
1159,2020-05-04,78.354125,83.73462500000001,162.08875
1159,2020-05-05,79.054875,81.21370833333333,160.2685833333333
1159,2020-05-06,78.86033333333333,96.323125,175.18345833333333
1159,2020-05-07,78.95291666666667,86.58366666666666,165.53658333333334
1159,2020-05-08,78.112625,92.21891666666666,170.33154166666665
1159,2020-05-09,79.79504166666666,101.34916666666668,181.14420833333332
1159,2020-05-10,80.17158333333333,88.8415,169.01308333333333
1159,2020-05-11,15.796875,156.89858333333333,172.69545833333333
1159,2020-05-12,-2.5087916666666668,172.05225,169.54345833333332
1159,2020-05-13,27.198666666666668,134.13570833333333,161.334375
1159,2020-05-14,63.791625,92.22166666666668,156.01329166666667
1159,2020-05-15,77.8025,83.903875,161.70637499999998
1159,2020-05-16,77.34183333333333,91.50025,168.84208333333333
1159,2020-05-17,78.94875,86.11479166666668,165.06354166666668
1159,2020-05-18,79.51458333333333,80.72687499999999,160.24145833333333
1159,2020-05-19,79.215,77.653875,156.868875
1159,2020-05-20,80.21870833333334,77.25808333333333,157.47679166666666
1159,2020-05-21,79.949,78.81541666666666,158.76441666666665
1159,2020-05-22,77.68691666666668,84.05758333333334,161.74450000000002
1159,2020-05-23,77.16104166666666,91.48729166666668,168.64833333333334
1159,2020-05-24,78.75666666666667,79.20345833333333,157.960125
1159,2020-05-25,78.55608333333333,81.93258333333334,160.4886666666667
1159,2020-05-26,78.16920833333333,88.00816666666667,166.17737499999998
1159,2020-05-27,77.68341666666667,99.03933333333333,176.72275000000002
1159,2020-05-28,75.65575,108.09920833333332,183.75495833333332
1159,2020-05-29,53.17683333333333,148.16945833333332,201.34629166666664
1159,2020-05-30,5.891791666666666,196.14345833333334,202.03525000000002
1159,2020-05-31,75.06625,101.521125,176.587375
1159,2020-06-01,77.07791666666667,84.47941666666667,161.55733333333333
1159,2020-06-02,75.15412500000001,86.87520833333333,162.02933333333334
1159,2020-06-03,73.64466666666667,108.36220833333334,182.006875
1159,2020-06-04,74.104625,147.98454166666667,222.08916666666667
1159,2020-06-05,73.757125,160.21116666666668,233.9682916666667
1159,2020-06-06,12.547541666666667,242.50541666666666,255.05295833333332
1159,2020-06-07,58.14191666666667,155.21120833333333,213.353125
1159,2020-06-08,77.483625,124.13566666666667,201.61929166666667
1159,2020-06-09,75.8935,165.291875,241.18537500000002
1159,2020-06-10,75.64966666666668,200.56279166666664,276.2124583333333
1159,2020-06-11,76.16075,201.01841666666667,277.1791666666667
1159,2020-06-12,75.941625,192.89866666666668,268.8402916666667
1159,2020-06-13,77.35179166666667,140.10183333333333,217.453625
1159,2020-06-14,78.16425,104.719,182.88324999999998
1159,2020-06-15,79.07375,108.64870833333333,187.72245833333335
1159,2020-06-16,77.64016666666667,115.85695833333334,193.497125
1159,2020-06-17,76.975125,121.479375,198.4545
1159,2020-06-18,76.838375,138.76591666666667,215.60429166666665
1159,2020-06-19,76.20945833333333,158.23983333333334,234.44929166666668
1159,2020-06-20,75.459625,185.85433333333333,261.31395833333335
1159,2020-06-21,75.11016666666667,218.71641666666667,293.82658333333336
1159,2020-06-22,74.86795833333333,264.78929166666666,339.65725
1159,2020-06-23,72.95133333333334,276.21120833333333,349.1625416666667
1159,2020-06-24,73.963625,245.29191666666668,319.25554166666666
1159,2020-06-25,74.289625,221.29191666666668,295.5815416666667
1159,2020-06-26,74.276,221.49504166666668,295.7710416666667
1159,2020-06-27,73.49908333333333,221.61458333333334,295.1136666666667
1159,2020-06-28,72.77908333333333,258.0208333333333,330.79991666666666
1159,2020-06-29,74.81533333333333,234.86458333333334,309.67991666666666
1159,2020-06-30,74.15379166666666,197.578125,271.7319166666667
1159,2020-07-01,73.57175,198.28645833333334,271.8582083333333
1159,2020-07-02,73.40054166666667,241.42708333333334,314.827625
1159,2020-07-03,73.13104166666666,268.8125,341.94354166666665
1159,2020-07-04,73.02504166666667,215.46354166666666,288.48858333333334
1159,2020-07-05,72.35691666666666,259.2604166666667,331.61733333333336
1159,2020-07-06,72.85495833333333,281.7864583333333,354.64141666666666
1159,2020-07-07,73.63545833333333,238.078125,311.7135833333333
1159,2020-07-08,73.11929166666667,267.7604166666667,340.8797083333334
1159,2020-07-09,73.08016666666667,294.796875,367.8770416666667
1159,2020-07-10,72.718625,247.26041666666666,319.97904166666666
1159,2020-07-11,71.339,259.453125,330.792125
1159,2020-07-12,72.31045833333333,262.0052083333333,334.31566666666663
1159,2020-07-13,73.41758333333333,283.296875,356.7144583333333
1159,2020-07-14,28.555916666666665,307.1302083333333,335.686125
1159,2020-07-15,28.176625,282.0833333333333,310.2599583333333
1159,2020-07-16,75.55579166666666,191.078125,266.63391666666666
1159,2020-07-17,75.52041666666666,201.4375,276.9579166666667
1159,2020-07-18,74.526625,265.3541666666667,339.8807916666667
1159,2020-07-19,73.48879166666667,335.8854166666667,409.37420833333334
1159,2020-07-20,74.16616666666667,371.359375,445.52554166666664
1159,2020-07-21,73.47166666666666,357.328125,430.7997916666667
1159,2020-07-22,72.99554166666667,350.3541666666667,423.34970833333335
1159,2020-07-23,72.79508333333334,316.1041666666667,388.89925000000005
1159,2020-07-24,73.625375,270.4322916666667,344.0576666666667
1159,2020-07-25,73.633,289.4427083333333,363.0757083333333
1159,2020-07-26,73.896,329.65625,403.55225
1159,2020-07-27,73.78058333333333,350.625,424.4055833333333
1159,2020-07-28,72.42087500000001,392.7552083333333,465.17608333333334
1159,2020-07-29,72.19158333333333,349.4427083333333,421.6342916666666
1159,2020-07-30,73.05975,346.078125,419.137875
1159,2020-07-31,72.83583333333333,284.0989583333333,356.9347916666666
1159,2020-08-01,71.92933333333333,293.1770833333333,365.10641666666663
1159,2020-08-02,72.12125,328.890625,401.01187500000003
1159,2020-08-03,74.186875,322.0,396.186875
1159,2020-08-04,72.20891666666667,265.0520833333333,337.26099999999997
1159,2020-08-05,73.898,265.8854166666667,339.78341666666665
1159,2020-08-06,74.53108333333334,236.86458333333334,311.39566666666667
1159,2020-08-07,74.159125,208.234375,282.3935
1159,2020-08-08,74.0085,213.95833333333334,287.96683333333334
1159,2020-08-09,73.36829166666666,260.3385416666667,333.70683333333335
1159,2020-08-10,75.142875,322.0,397.142875
1159,2020-08-11,73.03075,349.84375,422.8745
1159,2020-08-12,72.49662500000001,341.2291666666667,413.7257916666667
1159,2020-08-13,72.8475,284.5833333333333,357.43083333333334
1159,2020-08-14,73.9415,255.14583333333334,329.08733333333333
1159,2020-08-15,74.28733333333334,208.61979166666666,282.907125
1159,2020-08-16,73.822125,163.48958333333334,237.31170833333334
1159,2020-08-17,74.8775,161.08333333333334,235.96083333333334
1159,2020-08-18,73.610125,175.30729166666666,248.91741666666667
1159,2020-08-19,73.67183333333334,174.625,248.29683333333332
1159,2020-08-20,75.19883333333333,161.140625,236.3394583333333
1159,2020-08-21,73.70920833333334,190.81770833333334,264.5269166666667
1159,2020-08-22,72.59333333333333,237.8125,310.40583333333336
1159,2020-08-23,72.39833333333333,273.15625,345.5545833333333
1159,2020-08-24,71.58525,307.2916666666667,378.8769166666667
1159,2020-08-25,69.49141666666667,290.9739583333333,360.465375
1159,2020-08-26,69.81729166666666,204.85416666666666,274.6714583333333
1159,2020-08-27,67.74529166666666,235.78125,303.5265416666667
1159,2020-08-28,66.68608333333333,250.15104166666666,316.837125
1159,2020-08-29,65.13208333333334,254.55208333333334,319.68416666666667
1159,2020-08-30,66.93416666666667,197.11979166666666,264.0539583333333
1159,2020-08-31,67.121375,162.23958333333334,229.36095833333334
1159,2020-09-01,66.40354166666667,164.48958333333334,230.893125
1159,2020-09-02,59.548125,188.875,248.423125
1159,2020-09-03,62.117041666666665,217.39583333333334,279.512875
1159,2020-09-04,62.30441666666667,215.56770833333334,277.872125
1159,2020-09-05,61.92525,187.171875,249.097125
1159,2020-09-06,61.427416666666666,191.375,252.80241666666666
1159,2020-09-07,61.401833333333336,197.95833333333334,259.36016666666666
1159,2020-09-08,35.288666666666664,232.15104166666666,267.43970833333333
1159,2020-09-09,18.208875,255.93229166666666,274.14116666666666
1159,2020-09-10,3.669791666666667,303.1875,306.85729166666664
1159,2020-09-11,-2.142541666666667,269.5572916666667,267.41475
1159,2020-09-12,42.705125,158.47395833333334,201.17908333333335
1159,2020-09-13,71.3625,132.359375,203.721875
1159,2020-09-14,73.524875,131.84375,205.368625
1159,2020-09-15,74.71858333333334,91.95833333333333,166.67691666666667
1159,2020-09-16,76.5795,89.77604166666667,166.35554166666668
1159,2020-09-17,76.283,102.60416666666667,178.88716666666667
1159,2020-09-18,76.09970833333334,97.5,173.59970833333335
1159,2020-09-19,76.08933333333333,79.640625,155.72995833333334
1159,2020-09-20,75.88133333333333,85.20833333333333,161.08966666666666
1159,2020-09-21,77.882875,77.91666666666667,155.79954166666667
1159,2020-09-22,76.54670833333334,79.54166666666667,156.088375
1159,2020-09-23,76.42695833333333,84.07291666666667,160.499875
1159,2020-09-24,76.33866666666667,93.9375,170.27616666666665
1159,2020-09-25,76.402625,95.51041666666667,171.9130416666667
1159,2020-09-26,75.471125,107.77083333333333,183.24195833333334
1159,2020-09-27,75.69008333333333,136.28645833333334,211.97654166666666
1159,2020-09-28,76.98295833333333,144.61458333333334,221.59754166666667
1159,2020-09-29,76.24158333333334,135.90104166666666,212.142625
1159,2020-09-30,76.61458333333333,108.58854166666667,185.203125
1159,2020-10-01,77.27879166666666,93.88541666666667,171.16420833333333
1159,2020-10-02,76.85495833333333,88.36458333333333,165.21954166666666
1159,2020-10-03,76.28145833333333,81.65104166666667,157.9325
1159,2020-10-04,76.56541666666666,87.24479166666667,163.81020833333332
1159,2020-10-05,76.79820833333333,80.15625,156.95445833333332
1159,2020-10-06,76.29016666666666,84.96354166666667,161.25370833333335
1159,2020-10-07,76.61316666666666,82.27083333333333,158.884
1159,2020-10-08,76.91883333333332,79.203125,156.12195833333334
1159,2020-10-09,76.87441666666668,80.75,157.62441666666666
1159,2020-10-10,77.01979166666666,82.71354166666667,159.73333333333335
1159,2020-10-11,76.59095833333333,91.171875,167.76283333333333
1159,2020-10-12,77.56283333333333,97.39583333333333,174.95866666666666
1159,2020-10-13,45.75125,125.609375,171.360625
1159,2020-10-14,49.700375,108.47395833333333,158.17433333333332
1159,2020-10-15,72.05341666666666,85.58333333333333,157.63675
1159,2020-10-16,73.85958333333333,90.97395833333333,164.83354166666666
1159,2020-10-17,74.39133333333334,80.8125,155.20383333333334
1159,2020-10-18,74.71870833333334,91.42708333333333,166.14579166666667
1159,2020-10-19,74.909375,85.11979166666667,160.02916666666667
1159,2020-10-20,73.48554166666666,87.99479166666667,161.48033333333333
1159,2020-10-21,73.13454166666666,90.80729166666667,163.94183333333334
1159,2020-10-22,73.45529166666667,96.02604166666667,169.48133333333334
1159,2020-10-23,72.14104166666667,95.86979166666667,168.01083333333332
1159,2020-10-24,73.56175,90.71875,164.28050000000002
1159,2020-10-25,74.23004166666666,96.49479166666667,170.72483333333332
1159,2020-10-26,75.32583333333334,95.49479166666667,170.820625
1159,2020-10-27,74.03045833333333,90.328125,164.35858333333334
1159,2020-10-28,74.77775,94.3125,169.09025
1159,2020-10-29,3.0696666666666665,4.171875,7.2415416666666665
1159,2020-10-30,71.78329166666667,95.484375,167.26766666666668
1159,2020-10-31,74.717,104.77604166666667,179.49304166666667
1159,2020-11-01,71.86591666666666,106.56770833333333,178.433625
1159,2020-11-02,72.77054166666666,104.63020833333333,177.40075
1159,2020-11-03,74.53575,103.30208333333333,177.83783333333332
1159,2020-11-04,75.63704166666666,94.72395833333333,170.361
1159,2020-11-05,75.23,85.26041666666667,160.49041666666668
1159,2020-11-06,75.53745833333333,82.51041666666667,158.047875
1159,2020-11-07,74.90479166666667,84.41666666666667,159.32145833333334
1159,2020-11-08,74.62354166666667,87.74479166666667,162.36833333333334
1159,2020-11-09,75.795625,87.86979166666667,163.66541666666666